Location: Akgöl Batakl???
(38.9482°N, 31.8837°E)
Time: 05:51:32
(UTC+00:00)

CZ-4B R/B - Pass Details

Date: 08 May 2026
Orbit: 700 x 797 km, 98.9° (Epoch: 6 June)

Event Time Altitude Azimuth Distance (km) Brightness Sun altitude
Exits shadow 19:39:17 77° 263° (W) 722 3.3 -26.1°
Drops below altitude 10° 19:44:01 10° 344° (NNW) 2,183 6.8 -26.6°
Sets 19:46:18 0° 345° (NNW) 3,114 7.8 -26.9°
